BAW26H LWSK-LTFJ

Flight info

Callsign BAW26H
Flight time N/A
Altitude 19000
Route SIN2D SIN T215 VELBA/N0480F410 T343 MOREK DCT USALI DCT GERGI L614 ADORU UM19 IBODU IBODU1G
Aircraft A35K/H-SBDE1E2E3GHIJ1J3J4J5J6M1M2P2RWXYZ/LB1D1

Departure

Time 2026-04-25 11:28
Airport Skopje International Airport (LWSK)

Arrival

Time N/A
Airport Istanbul Sabiha Gökçen International Airport (LTFJ)
Time Latitude Longitude Altitude Speed Heading
2026-04-25 11:13 41.95943 21.62619 799 ft 0 kts 76°
2026-04-25 11:16 41.95943 21.62620 799 ft 0 kts 76°
2026-04-25 11:19 41.95939 21.62597 799 ft 4 kts 72°
2026-04-25 11:19 41.95930 21.62562 799 ft 4 kts 78°
2026-04-25 11:19 41.95928 21.62531 798 ft 4 kts 93°
2026-04-25 11:19 41.95934 21.62498 797 ft 4 kts 131°
2026-04-25 11:20 41.95955 21.62481 797 ft 4 kts 171°
2026-04-25 11:20 41.95981 21.62477 797 ft 3 kts 166°
2026-04-25 11:20 41.95983 21.62475 797 ft 0 kts 165°
2026-04-25 11:23 41.95977 21.62477 797 ft 3 kts 165°
2026-04-25 11:24 41.95946 21.62488 797 ft 7 kts 165°
2026-04-25 11:24 41.95887 21.62509 797 ft 11 kts 165°
2026-04-25 11:24 41.95796 21.62541 795 ft 16 kts 165°
2026-04-25 11:24 41.95670 21.62585 792 ft 21 kts 165°
2026-04-25 11:25 41.95550 21.62630 791 ft 19 kts 165°
2026-04-25 11:25 41.95409 21.62680 789 ft 23 kts 166°
2026-04-25 11:25 41.95302 21.62715 787 ft 10 kts 166°
2026-04-25 11:25 41.95247 21.62734 786 ft 9 kts 165°
2026-04-25 11:26 41.95216 21.62745 785 ft 6 kts 166°
2026-04-25 11:26 41.95166 21.62743 784 ft 9 kts 202°
2026-04-25 11:26 41.95134 21.62663 784 ft 11 kts 255°
2026-04-25 11:26 41.95115 21.62566 785 ft 8 kts 255°
2026-04-25 11:27 41.95123 21.62517 787 ft 4 kts 314°
2026-04-25 11:27 41.95151 21.62499 787 ft 0 kts 342°
2026-04-25 11:28 41.95404 21.62407 788 ft 82 kts 347°
2026-04-25 11:28 41.96225 21.62122 796 ft 160 kts 347°
2026-04-25 11:28 41.97394 21.61727 1433 ft 178 kts 346°
2026-04-25 11:28 41.98634 21.61307 2314 ft 190 kts 346°
2026-04-25 11:29 41.99993 21.60865 2877 ft 211 kts 347°
2026-04-25 11:29 42.01511 21.60836 3523 ft 227 kts 13°
2026-04-25 11:29 42.02823 21.61971 4447 ft 230 kts 52°
2026-04-25 11:29 42.03326 21.63996 5409 ft 235 kts 90°
2026-04-25 11:30 42.02800 21.66069 6275 ft 242 kts 127°
2026-04-25 11:30 42.01406 21.67401 6890 ft 261 kts 162°
2026-04-25 11:30 41.99555 21.67459 7502 ft 276 kts 197°
2026-04-25 11:30 41.97751 21.66611 8467 ft 281 kts 202°
2026-04-25 11:31 41.95891 21.65744 9547 ft 286 kts 199°
2026-04-25 11:31 41.93919 21.64984 10487 ft 298 kts 194°
2026-04-25 11:31 41.91800 21.64726 10915 ft 326 kts 176°
2026-04-25 11:31 41.89544 21.65577 11343 ft 351 kts 153°
2026-04-25 11:32 41.87605 21.67636 12028 ft 364 kts 129°
2026-04-25 11:32 41.86351 21.70595 12867 ft 369 kts 107°
2026-04-25 11:32 41.86026 21.74003 13830 ft 370 kts 84°
2026-04-25 11:32 41.86680 21.77319 14683 ft 371 kts 62°
2026-04-25 11:33 41.88034 21.80270 15578 ft 373 kts 54°
2026-04-25 11:33 41.89535 21.83134 16519 ft 376 kts 53°
2026-04-25 11:33 41.91045 21.86017 17447 ft 380 kts 53°
2026-04-25 11:33 41.92569 21.88955 18270 ft 386 kts 54°
2026-04-25 11:34 41.94100 21.91934 19073 ft 390 kts 54°
2026-04-25 11:34 41.95471 21.95111 19812 ft 398 kts 66°
2026-04-25 11:34 41.95965 21.97471 20343 ft 403 kts 79°
2026-04-25 11:35 41.95981 21.97601 20353 ft 403 kts 79°
2026-04-25 11:35 41.96257 22.01391 21229 ft 408 kts 84°
2026-04-25 11:35 41.96437 22.05220 22025 ft 414 kts 84°
2026-04-25 11:36 41.96624 22.09097 22825 ft 418 kts 84°
2026-04-25 11:36 41.96825 22.13016 23633 ft 423 kts 84°
2026-04-25 11:36 41.97035 22.16981 24295 ft 428 kts 84°
2026-04-25 11:36 41.97250 22.20978 25013 ft 431 kts 84°
2026-04-25 11:37 41.97468 22.25014 25741 ft 434 kts 84°
2026-04-25 11:37 41.97687 22.29070 26460 ft 437 kts 84°
2026-04-25 11:37 41.97907 22.33159 27195 ft 440 kts 84°
2026-04-25 11:37 41.98048 22.37287 27902 ft 444 kts 87°
2026-04-25 11:38 41.98027 22.41457 28551 ft 449 kts 89°
2026-04-25 11:38 41.97937 22.45669 29191 ft 453 kts 89°
2026-04-25 11:38 41.97815 22.49865 29812 ft 457 kts 90°
2026-04-25 11:38 41.97676 22.54202 30383 ft 461 kts 90°
2026-04-25 11:39 41.97540 22.58468 30888 ft 465 kts 90°
2026-04-25 11:39 41.97408 22.62824 31386 ft 468 kts 89°
2026-04-25 11:39 41.97280 22.67195 31874 ft 471 kts 89°
2026-04-25 11:39 41.97154 22.71607 32341 ft 474 kts 89°
2026-04-25 11:40 41.97057 22.76055 32786 ft 476 kts 86°
2026-04-25 11:40 41.97274 22.80493 33219 ft 476 kts 79°
2026-04-25 11:40 41.97942 22.84826 33821 ft 471 kts 71°
2026-04-25 11:40 41.99065 22.88929 34434 ft 465 kts 63°
2026-04-25 11:41 42.00609 22.92705 34957 ft 460 kts 54°
2026-04-25 11:41 42.02552 22.96104 35391 ft 458 kts 46°
2026-04-25 11:41 42.04736 22.99225 35845 ft 457 kts 44°
2026-04-25 11:41 42.06974 23.02252 36257 ft 457 kts 43°
2026-04-25 11:42 42.09248 23.05253 36646 ft 457 kts 43°
2026-04-25 11:42 42.11520 23.08234 37071 ft 456 kts 43°
2026-04-25 11:42 42.13791 23.11227 37506 ft 456 kts 43°
2026-04-25 11:42 42.16049 23.14222 37887 ft 456 kts 43°
2026-04-25 11:43 42.18301 23.17228 38250 ft 456 kts 43°
2026-04-25 11:43 42.20548 23.20240 38614 ft 456 kts 43°
2026-04-25 11:43 42.22790 23.23261 38927 ft 456 kts 43°
2026-04-25 11:43 42.24895 23.26477 39142 ft 459 kts 50°
2026-04-25 11:44 42.26690 23.30051 39335 ft 463 kts 58°
2026-04-25 11:44 42.28106 23.33981 39514 ft 468 kts 66°
2026-04-25 11:44 42.29069 23.38193 39704 ft 472 kts 75°
2026-04-25 11:44 42.29550 23.42600 39921 ft 476 kts 83°
2026-04-25 11:45 42.29778 23.47061 40138 ft 478 kts 84°
2026-04-25 11:45 42.29924 23.51554 40342 ft 479 kts 85°
2026-04-25 11:45 42.30033 23.56065 40546 ft 480 kts 86°
2026-04-25 11:45 42.30134 23.60578 40749 ft 481 kts 86°
2026-04-25 11:46 42.30118 23.65112 40932 ft 484 kts 91°
2026-04-25 11:46 42.29921 23.69657 41035 ft 485 kts 92°
2026-04-25 11:46 42.29436 23.78735 41039 ft 485 kts 92°
2026-04-25 11:47 42.28907 23.87819 41033 ft 485 kts 92°
2026-04-25 11:47 42.28379 23.96837 41028 ft 485 kts 92°
2026-04-25 11:48 42.27848 24.05918 41028 ft 485 kts 92°
2026-04-25 11:48 42.27313 24.14996 41019 ft 485 kts 92°
2026-04-25 11:49 42.26771 24.24077 41023 ft 486 kts 92°
2026-04-25 11:49 42.26220 24.33163 41022 ft 486 kts 93°
2026-04-25 11:50 42.25662 24.42250 41022 ft 486 kts 93°
2026-04-25 11:50 42.25097 24.51337 41022 ft 486 kts 93°
2026-04-25 11:51 42.24526 24.60410 41021 ft 485 kts 93°
2026-04-25 11:51 42.23947 24.69483 41023 ft 485 kts 93°
2026-04-25 11:52 42.23360 24.78567 41015 ft 486 kts 93°
2026-04-25 11:52 42.22766 24.87654 41012 ft 487 kts 93°
2026-04-25 11:53 42.22164 24.96758 41016 ft 487 kts 93°
2026-04-25 11:53 42.21555 25.05851 41023 ft 487 kts 93°
2026-04-25 11:54 42.20938 25.14952 41020 ft 487 kts 93°
2026-04-25 11:55 42.19998 25.28603 41020 ft 487 kts 94°
2026-04-25 11:55 42.19363 25.37700 41023 ft 487 kts 94°
2026-04-25 11:56 42.18724 25.46745 41021 ft 487 kts 94°
2026-04-25 11:56 42.17254 25.55658 41021 ft 490 kts 108°
2026-04-25 11:57 42.14875 25.64269 41019 ft 491 kts 110°
2026-04-25 11:57 42.12338 25.72806 41028 ft 491 kts 110°
2026-04-25 11:58 42.09788 25.81340 41023 ft 491 kts 110°
2026-04-25 11:58 42.07254 25.89869 41020 ft 491 kts 110°
2026-04-25 11:59 42.04720 25.98407 41022 ft 491 kts 110°
2026-04-25 11:59 42.02182 26.06940 41023 ft 491 kts 110°
2026-04-25 12:00 41.98369 26.19703 41024 ft 490 kts 110°
2026-04-25 12:01 41.94549 26.32422 41026 ft 490 kts 110°
2026-04-25 12:01 41.91990 26.40911 41020 ft 490 kts 111°
2026-04-25 12:02 41.88094 26.53610 41018 ft 491 kts 114°
2026-04-25 12:02 41.84375 26.61289 41025 ft 492 kts 128°
2026-04-25 12:03 41.80026 26.68391 41021 ft 493 kts 129°
2026-04-25 12:03 41.75645 26.75467 41021 ft 494 kts 129°
2026-04-25 12:04 41.71290 26.82483 41017 ft 493 kts 129°
2026-04-25 12:04 41.69107 26.85994 40583 ft 488 kts 129°
2026-04-25 12:04 41.66934 26.89487 39829 ft 491 kts 129°
2026-04-25 12:05 41.64740 26.93008 39107 ft 493 kts 128°
2026-04-25 12:05 41.62545 26.96526 38366 ft 493 kts 128°
2026-04-25 12:05 41.60346 27.00048 37497 ft 494 kts 128°
2026-04-25 12:05 41.58145 27.03566 36608 ft 495 kts 128°
2026-04-25 12:06 41.55929 27.07106 35732 ft 497 kts 128°
2026-04-25 12:06 41.53658 27.10597 34863 ft 500 kts 131°
2026-04-25 12:06 41.51218 27.13905 34009 ft 502 kts 133°
2026-04-25 12:06 41.48742 27.17197 32989 ft 503 kts 133°
2026-04-25 12:07 41.46268 27.20512 32058 ft 504 kts 133°
2026-04-25 12:07 41.43805 27.23835 31095 ft 505 kts 133°
2026-04-25 12:07 41.41337 27.27178 30158 ft 507 kts 133°
2026-04-25 12:07 41.38866 27.30529 29144 ft 507 kts 133°
2026-04-25 12:08 41.36405 27.33868 28248 ft 504 kts 133°
2026-04-25 12:08 41.33952 27.37194 27517 ft 499 kts 133°
2026-04-25 12:08 41.31557 27.40438 27272 ft 484 kts 133°
2026-04-25 12:08 41.29233 27.43583 27065 ft 470 kts 133°
2026-04-25 12:09 41.26972 27.46642 26857 ft 457 kts 133°
2026-04-25 12:09 41.24802 27.49629 26632 ft 444 kts 130°
2026-04-25 12:09 41.23075 27.52943 26360 ft 431 kts 115°
2026-04-25 12:09 41.21905 27.56557 26046 ft 421 kts 110°
2026-04-25 12:10 41.20859 27.60202 25267 ft 425 kts 109°
2026-04-25 12:10 41.19808 27.63903 24382 ft 431 kts 109°
2026-04-25 12:10 41.18742 27.67628 23772 ft 431 kts 110°
2026-04-25 12:10 41.17677 27.71324 23149 ft 428 kts 110°
2026-04-25 12:11 41.16613 27.74997 22572 ft 424 kts 110°
2026-04-25 12:11 41.15558 27.78631 22025 ft 419 kts 110°
2026-04-25 12:11 41.14512 27.82226 21461 ft 416 kts 110°
2026-04-25 12:11 41.13474 27.85786 20900 ft 412 kts 110°
2026-04-25 12:12 41.12792 27.88124 20530 ft 411 kts 110°
2026-04-25 12:12 41.11770 27.91632 20187 ft 401 kts 110°
2026-04-25 12:12 41.10779 27.95021 20060 ft 387 kts 111°
2026-04-25 12:12 41.09516 27.99319 19882 ft 368 kts 111°
2026-04-25 12:13 41.08604 28.02425 19740 ft 356 kts 111°
2026-04-25 12:13 41.08004 28.04463 19643 ft 348 kts 111°
2026-04-25 12:13 41.06848 28.08390 19384 ft 354 kts 111°
2026-04-25 12:13 41.06225 28.10507 19344 ft 375 kts 111°
2026-04-25 12:14 41.05223 28.13854 19291 ft 406 kts 113°
2026-04-25 12:14 41.03744 28.17051 19052 ft 407 kts 131°
2026-04-25 12:14 41.01588 28.19429 18622 ft 406 kts 150°
2026-04-25 12:14 40.98930 28.20726 18179 ft 411 kts 170°
2026-04-25 12:15 40.96127 28.21129 17688 ft 410 kts 175°
2026-04-25 12:15 40.93301 28.21476 17238 ft 407 kts 174°
2026-04-25 12:15 40.90498 28.21959 16788 ft 405 kts 172°
2026-04-25 12:15 40.87730 28.22538 16316 ft 401 kts 171°
2026-04-25 12:16 40.84980 28.23172 15392 ft 404 kts 170°
2026-04-25 12:16 40.82196 28.23853 14503 ft 407 kts 169°
2026-04-25 12:16 40.79430 28.24581 13835 ft 403 kts 167°
2026-04-25 12:16 40.76827 28.25809 13391 ft 392 kts 155°
2026-04-25 12:17 40.74444 28.27366 13035 ft 370 kts 153°
2026-04-25 12:17 40.72230 28.28882 12522 ft 350 kts 152°
2026-04-25 12:17 40.70230 28.30670 11962 ft 346 kts 139°
2026-04-25 12:17 40.68722 28.33084 11506 ft 341 kts 120°
2026-04-25 12:18 40.67886 28.35966 11088 ft 335 kts 102°
2026-04-25 12:18 40.67660 28.38998 10848 ft 332 kts 92°
2026-04-25 12:18 40.67602 28.42035 10676 ft 332 kts 92°
2026-04-25 12:18 40.67555 28.45070 10531 ft 331 kts 92°
2026-04-25 12:19 40.67464 28.50113 10289 ft 330 kts 92°
2026-04-25 12:19 40.67380 28.54116 10093 ft 329 kts 92°
2026-04-25 12:19 40.67313 28.57122 9937 ft 318 kts 92°
2026-04-25 12:20 40.67250 28.59952 9730 ft 306 kts 92°
2026-04-25 12:20 40.67191 28.62760 9377 ft 300 kts 92°
2026-04-25 12:20 40.67465 28.65410 8853 ft 289 kts 74°
2026-04-25 12:20 40.68091 28.67905 8507 ft 284 kts 71°
2026-04-25 12:21 40.68750 28.70322 8197 ft 278 kts 71°
2026-04-25 12:21 40.69388 28.72671 7933 ft 275 kts 71°
2026-04-25 12:21 40.70034 28.75070 7632 ft 273 kts 71°
2026-04-25 12:21 40.70656 28.77394 7350 ft 272 kts 71°
2026-04-25 12:22 40.71288 28.79764 7058 ft 270 kts 72°
2026-04-25 12:22 40.71908 28.82099 6760 ft 269 kts 72°
2026-04-25 12:22 40.72512 28.84373 6568 ft 268 kts 72°
2026-04-25 12:22 40.73127 28.86695 6345 ft 264 kts 72°
2026-04-25 12:23 40.73730 28.88972 6081 ft 257 kts 72°
2026-04-25 12:23 40.74304 28.91140 5825 ft 252 kts 72°
2026-04-25 12:23 40.74879 28.93322 5575 ft 251 kts 72°
2026-04-25 12:23 40.75499 28.95466 5320 ft 250 kts 65°
2026-04-25 12:24 40.76274 28.97506 5062 ft 249 kts 64°
2026-04-25 12:24 40.77039 28.99544 4821 ft 248 kts 65°
2026-04-25 12:24 40.77800 29.01567 4536 ft 243 kts 65°
2026-04-25 12:24 40.78552 29.03542 4242 ft 239 kts 64°
2026-04-25 12:25 40.79298 29.05478 4004 ft 232 kts 64°
2026-04-25 12:25 40.80007 29.07334 3984 ft 220 kts 64°
2026-04-25 12:25 40.80666 29.09088 3985 ft 209 kts 64°
2026-04-25 12:25 40.81295 29.10797 3997 ft 206 kts 65°
2026-04-25 12:26 40.81908 29.12494 3760 ft 203 kts 65°
2026-04-25 12:26 40.82526 29.14167 3421 ft 203 kts 64°
2026-04-25 12:26 40.83143 29.15822 3103 ft 200 kts 64°
2026-04-25 12:26 40.83746 29.17460 2765 ft 197 kts 64°
2026-04-25 12:27 40.84331 29.19038 2467 ft 185 kts 63°